Weather History for Jaipur, India

Change the Weather History Date:

Friday, November 4, 2011

  Actual Average Record
Temperature  
Mean Temperature 76 °F -  
Max Temperature 91 °F - - ()
Min Temperature 62 °F - - ()
Cooling Degree Days 12    
Growing Degree Days 26 (Base 50)    
Moisture  
Dew Point 47 °F    
Average Humidity 35    
Maximum Humidity 52    
Minimum Humidity 14    
Precipitation  
Precipitation 0.00 in - - ()
Sea Level Pressure  
Sea Level Pressure 29.92 in    
Wind  
Wind Speed 1 mph ()    
Max Wind Speed 8 mph    
Max Gust Speed 21 mph    
Visibility 2.0 miles    
Events      
T = Trace of Precipitation, MM = Missing Value Source: Averaged Metar Reports

Daily Weather History Graph

Daily Weather History Graph

Search for Another Location

Airport:

Trip Planner

Search our weather history database for the weather conditions in past years. The results will help you decide how hot, cold, wet, or windy it might be!

Date:

Astronomy

Nov. 04, 2011 Rise Set
Actual Time 6:37 AM IST 5:42 PM IST
Civil Twilight 6:13 AM IST 6:06 PM IST
Nautical Twilight 5:46 AM IST 6:33 PM IST
Astronomical Twilight 5:19 AM IST 7:01 PM IST
Moon 1:51 PM IST (11/4) 12:56 AM IST (11/4)
Length of Visible Light 11h 52m
Length of Day
11h 04m
Waxing Gibbous, 65% of the Moon is Illuminated
Nov 4
Waxing Gibbous
Nov 11
Full
Nov 18
Last Quarter
Nov 25
New
Dec 2
First Quarter

Hourly Weather History & Observations

Time (IST) Temp. Dew Point Humidity Pressure Visibility Wind Dir Wind Speed Gust Speed Precip Events Conditions
12:00 AM 68.0 °F 44.6 °F 43% 29.92 in 1.9 mi Calm Calm - N/A   Haze
1:00 AM 66.2 °F 46.4 °F 49% 29.92 in 1.9 mi Calm Calm - N/A   Haze
2:00 AM 66.2 °F 46.4 °F 49% 29.89 in 1.9 mi Calm Calm - N/A   Haze
2:30 AM 66 °F 47 °F 39% 29.86 in 1 mi Calm Calm - -   Haze
3:00 AM 68.0 °F 50.0 °F 52% 29.89 in 1.9 mi Calm Calm - N/A   Haze
4:00 AM 68.0 °F 48.2 °F 49% 29.89 in 1.9 mi Calm Calm - N/A   Haze
5:00 AM 66.2 °F 46.4 °F 49% 29.92 in 1.9 mi Calm Calm - N/A   Haze
6:00 AM 66.2 °F 46.4 °F 49% 29.92 in 1.9 mi Calm Calm - N/A   Haze
7:00 AM 64.4 °F 44.6 °F 49% 29.95 in 1.9 mi Calm Calm - N/A   Haze
8:00 AM 68.0 °F 50.0 °F 52% 29.98 in 1.9 mi Calm Calm - N/A   Haze
8:30 AM 72 °F 49 °F 33% 29.91 in 1 mi Calm Calm - -   Haze
9:00 AM 78.8 °F 42.8 °F 28% 29.98 in 2.5 mi East 5.8 mph - N/A   Haze
10:00 AM 80.6 °F 42.8 °F 26% 30.01 in 2.5 mi ESE 8.1 mph - N/A   Haze
11:00 AM 84.2 °F 46.4 °F 27% 30.01 in 2.5 mi ESE 6.9 mph - N/A   Haze
11:30 AM 86 °F 45 °F 14% 29.89 in 2 mi ESE 6.9 mph - -   Haze
12:00 PM 87.8 °F 42.8 °F 21% 29.98 in 2.5 mi ESE 6.9 mph - N/A   Haze
1:00 PM 87.8 °F 42.8 °F 21% 29.95 in 2.5 mi SSE 4.6 mph - N/A   Haze
2:00 PM 89.6 °F 44.6 °F 21% 29.92 in 2.5 mi Variable 4.6 mph 20.7 mph N/A   Haze
2:30 PM 90 °F 48 °F 15% 29.83 in 2 mi SW 4.6 mph - -   Haze
3:00 PM 89.6 °F 44.6 °F 21% 29.89 in 2.5 mi Variable 1.2 mph - N/A   Haze
4:00 PM 89.6 °F 44.6 °F 21% 29.89 in 2.5 mi Calm Calm - N/A   Haze
5:00 PM 86.0 °F 46.4 °F 25% 29.89 in 2.5 mi Calm Calm - N/A   Haze
5:30 PM 84 °F 49 °F 20% 29.83 in 2 mi Calm Calm - -   Haze
6:00 PM 80.6 °F 48.2 °F 32% 29.92 in 2.5 mi Calm Calm - N/A   Haze
7:00 PM 77.0 °F 53.6 °F 44% 29.92 in 1.6 mi Calm Calm - N/A   Smoke
8:00 PM 75.2 °F 50.0 °F 41% 29.95 in 1.6 mi Calm Calm - N/A   Smoke
8:30 PM 75 °F 50 °F 30% 29.88 in 1 mi Calm Calm - -   Smoke
9:00 PM 75.2 °F 50.0 °F 41% 29.95 in 1.6 mi Calm Calm - N/A   Smoke
10:00 PM 73.4 °F 50.0 °F 44% 29.95 in 1.6 mi Calm Calm - N/A   Smoke
11:30 PM 72 °F 52 °F 38% 29.89 in 1 mi Calm Calm - -   Haze